Regional Weather Roundup
Issued by NWS

Home | Current Version | Previous Version | Text Only | Print | Product List | Glossary Off
Versions: 1 2 3 4 5 6 7 8 9 10 11 12 13 14 15 16 17 18 19 20 21 22 23 24 25 26 27 28 29 30 31 32 33 34 35 36 37 38 39 40 41 42 43 44 45 46 47 48 49 50

000
ASUS43 KFSD 191510
RWRSD

WEATHER ROUNDUP FOR SOUTH DAKOTA
NATIONAL WEATHER SERVICE SIOUX FALLS SD
1000 AM CDT FRI SEP 19 2014

NOTE: "FAIR" INDICATES FEW OR NO CLOUDS BELOW 12,000 FEET WITH NO
SIGNIFICANT WEATHER AND/OR OBSTRUCTIONS TO VISIBILITY.


SDZ001>005-009-010-012>017-191600-
NORTHWEST AND NORTH CENTRAL SOUTH DAKOTA

CITY           SKY/WX    TMP DP  RH WIND       PRES   REMARKS
BUFFALO          N/A     65  56  72 W12       29.74R
FAITH            N/A     68  57  68 W12       29.75R
MOBRIDGE       CLOUDY    65  64  97 SW6       29.65R
$$

SDZ012>016-024>037-041>051-057-063-072>074-191600-
SOUTHWEST AND SOUTH CENTRAL SOUTH DAKOTA

CITY           SKY/WX    TMP DP  RH WIND       PRES   REMARKS
RAPID CTY ARPT CLOUDY    69  54  58 CALM      29.83R
PIERRE         CLOUDY    65  61  87 SW8       29.68R
CUSTER         CLOUDY    62  49  62 NW5       29.98R
PHILIP         PTSUNNY   69  58  67 W8        29.76R
PINE RIDGE     MOSUNNY   67  60  78 SW5       29.86R
WINNER         FAIR      74  63  68 W14       29.73R
$$

SDZ004>011-016>023-039-040-191600-
NORTHEAST SOUTH DAKOTA

CITY           SKY/WX    TMP DP  RH WIND       PRES   REMARKS
ABERDEEN       CLOUDY    63  62  97 SW5       29.68R FOG
WATERTOWN      CLOUDY    63  62  97 S15G23    29.69F FOG
SISSETON         N/A     65  62  90 SW12      29.65F
$$

SDZ017-020-022-023-036>040-048>070-191600-
SOUTHEAST SOUTH DAKOTA

CITY           SKY/WX    TMP DP  RH WIND       PRES   REMARKS
SIOUX FALLS    CLOUDY    68  62  81 S20G30    29.76F
HURON          CLOUDY    69  63  81 S14G20    29.66F
CHAMBERLAIN    MOSUNNY   70  63  78 SW13      29.69S
MITCHELL       MOSUNNY   71  64  78 S17G24    29.69F
YANKTON        SUNNY     72  63  73 S16G24    29.77F
$$

ABBREVIATIONS USED IN REMARKS
   TC - TEMPERATURE IN CELSIUS
  WCI - WIND CHILL INDEX
   HX - HEAT INDEX
  VSB - VISIBILITY



USA.gov is the U.S. government's official web portal to all federal, state and local government web resources and services.